Location: Forst
(46.9333°N, 15.4333°E)
Time: 14:04:17
(UTC+00:00)

Lacrosse 5 rocket - Pass Details

Date: 01 December 2020
Orbit: 462 x 633 km, 57.0° (Epoch: 26 January)

Event Time Altitude Azimuth Distance (km) Brightness Sun altitude
Rises 16:42:52 0° 255° (WSW) 2,527 6.6 -15.1°
Reaches altitude 10° 16:45:10 10° 264° (W) 1,633 5.1 -15.4°
Maximum altitude 16:48:33 35° 332° (NNW) 769 2.1 -16.0°
Enters shadow 16:50:13 23° 22° (NNE) 1,044 2.4 -16.3°
